Weather in Nevolina

Russia / Tyumen Oblast     56°17′47″N   69°54′15″E
temp.,
°C
wind,
m/s
gust,
m/s
humid.,
%
clouds,
%
prec.,
mm/h
press.,
hPa
HPBL,
m
21 april, wed
wed2123:00+1w6146259 0.0 1023312
02:00+1nw5117468 0.0 1023242
05:00−1nnw38935 0.0 1026172
08:00+2n58675 0.0 1027662
11:00+5nnw684699 0.0 10281191
14:00+8n68415 0.0 10301565
17:00+7nne67395 0.0 10321643
20:00+3ene37583 0.0 1035193
22 april, thu
thu2223:00+1e37670 0.0 1037160
02:00−1ese36720 0.0 1039144
05:00−1se36730 0.0 1041157
08:00+2sse45530 0.0 1043687
11:00+5sse45390 0.0 10431088
14:00+8sse55322 0.0 10421283
17:00+8s55310 0.0 10421429
20:00+5sse48480 0.0 1042137
23 april, fri
fri2323:00+2sse4115876 0.0 1042214
02:00+2s41259100 0.0 1042290
05:00+1sse51263100 0.0 1041290
08:00+5s6115227 0.0 1042488
11:00+10s783858 0.0 10401083
14:00+12s673222 0.0 10391598
17:00+11s6731100 0.0 10381630
20:00+8sse4847100 0.0 1038161
24 april, sat
sat2423:00+6sse5125198 0.0 1037266
02:00+5sse4115699 0.0 1036241
05:00+3sse41060100 0.0 1035222
08:00+6s51051100 0.0 1034362
11:00+10s6835100 0.0 1033965
14:00+11s6731100 0.0 10311526
17:00+10s4637100 0.0 1030746
20:00+8se3747100 0.0 1029139
25 april, sun
sun2523:00+7se4949100 0.0 1028227
02:00+6se41052100 0.0 1027252
05:00+5se41055100 0.0 1025258
08:00+7se61151100 0.0 1024409
11:00+11se7103795 0.0 1022981
14:00+15sse8102797 0.0 10192184
17:00+15sse6102870 0.0 10172481
20:00+11se5113899 0.0 1016253